Weather History for Prague, Czech Republic

Change the Weather History Date:

Saturday, August 17, 2013

  Actual Average Record
Temperature  
Mean Temperature 66 °F -  
Max Temperature 82 °F 69 °F 84 °F (2003)
Min Temperature 49 °F 50 °F 49 °F (2013)
Growing Degree Days 16 (Base 50)    
Moisture  
Dew Point 49 °F    
Average Humidity 51    
Maximum Humidity 82    
Minimum Humidity 26    
Precipitation  
Precipitation 0.00 in 0.07 in - ()
Sea Level Pressure  
Sea Level Pressure 30.04 in    
Wind  
Wind Speed 5 mph ()    
Max Wind Speed 10 mph    
Max Gust Speed -    
Averages and records for this station are not official NWS values.
T = Trace of Precipitation, MM = Missing Value Source: Averaged Metar Reports

Daily Weather History Graph

Daily Weather History Graph

Search for Another Location

Airport:

Trip Planner

Search our weather history database for the weather conditions in past years. The results will help you decide how hot, cold, wet, or windy it might be!

Date:

Astronomy

Aug. 17, 2013 Rise Set
Actual Time 5:55 AM CEST 8:17 PM CEST
Civil Twilight 5:19 AM CEST 8:53 PM CEST
Nautical Twilight 4:34 AM CEST 9:38 PM CEST
Astronomical Twilight 3:41 AM CEST 10:29 PM CEST
Moon 5:28 PM CEST (8/17) 1:28 AM CEST (8/17)
Length of Visible Light 15h 33m
Length of Day
14h 22m
Waxing Gibbous, 82% of the Moon is Illuminated
Aug 17
Waxing Gibbous
Aug 21
Full
Aug 28
Last Quarter
Sep 5
New
Sep 12
First Quarter

Hourly Weather History & Observations

Time (CEST) Temp. Dew Point Humidity Pressure Visibility Wind Dir Wind Speed Gust Speed Precip Events Conditions
12:00 AM 62.6 °F 46.4 °F 55% 30.09 in - ESE 6.9 mph - N/A   Clear
12:30 AM 59.0 °F 46.4 °F 63% 30.09 in - ESE 6.9 mph - N/A   Clear
1:00 AM 59.0 °F 46.4 °F 63% 30.09 in - SSE 6.9 mph - N/A   Clear
1:30 AM 57.2 °F 48.2 °F 72% 30.09 in - SSE 5.8 mph - N/A   Clear
2:00 AM 58 °F 46 °F 55% 30.09 in 31 mi South 4.5 mph - -  
2:00 AM 59.0 °F 46.4 °F 63% 30.09 in - South 4.6 mph - N/A   Clear
2:30 AM 59.0 °F 44.6 °F 59% 30.09 in - South 5.8 mph - N/A   Clear
3:00 AM 57.2 °F 44.6 °F 63% 30.06 in - South 5.8 mph - N/A   Clear
3:30 AM 59.0 °F 44.6 °F 59% 30.06 in - SSE 8.1 mph - N/A   Clear
4:00 AM 59.0 °F 44.6 °F 59% 30.06 in - SE 8.1 mph - N/A   Clear
4:30 AM 57.2 °F 44.6 °F 63% 30.06 in - Variable 2.3 mph - N/A   Clear
5:00 AM 51.8 °F 44.6 °F 76% 30.06 in - South 2.3 mph - N/A   Clear
5:30 AM 55.4 °F 44.6 °F 67% 30.06 in - East 3.5 mph - N/A   Clear
6:00 AM 50.0 °F 42.8 °F 76% 30.06 in - Variable 1.2 mph - N/A   Clear
6:30 AM 50.0 °F 44.6 °F 82% 30.06 in - Variable 1.2 mph - N/A   Clear
7:00 AM 53.6 °F 44.6 °F 72% 30.06 in - Calm Calm - N/A   Clear
7:30 AM 57.2 °F 48.2 °F 72% 30.06 in - SE 3.5 mph - N/A   Clear
8:00 AM 60 °F 49 °F 56% 30.08 in 31 mi South 2.2 mph - -   Clear
8:00 AM 59.0 °F 48.2 °F 67% 30.06 in - SSE 5.8 mph - N/A   Clear
8:30 AM 60.8 °F 50.0 °F 68% 30.06 in - South 3.5 mph - N/A   Clear
9:00 AM 64.4 °F 50.0 °F 59% 30.06 in - SSW 3.5 mph - N/A   Clear
9:30 AM 66.2 °F 48.2 °F 52% 30.06 in - Variable 2.3 mph - N/A   Clear
10:00 AM 69.8 °F 51.8 °F 53% 30.06 in - Variable 2.3 mph - N/A   Clear
10:30 AM 69.8 °F 51.8 °F 53% 30.06 in - Variable 1.2 mph - N/A   Clear
11:00 AM 71.6 °F 51.8 °F 50% 30.06 in - Variable 2.3 mph - N/A   Clear
11:30 AM 73.4 °F 51.8 °F 47% 30.06 in - Variable 1.2 mph - N/A   Clear
12:00 PM 73.4 °F 51.8 °F 47% 30.06 in - Variable 2.3 mph - N/A   Clear
12:30 PM 75.2 °F 51.8 °F 44% 30.04 in - SSE 4.6 mph - N/A   Clear
1:00 PM 77.0 °F 50.0 °F 39% 30.04 in - Variable 2.3 mph - N/A   Clear
1:30 PM 78.8 °F 51.8 °F 39% 30.04 in - Variable 2.3 mph - N/A   Clear
2:00 PM 79 °F 50 °F 26% 29.99 in 25 mi WSW 6.7 mph - -   Scattered Clouds
2:00 PM 78.8 °F 48.2 °F 34% 30.04 in - SW 6.9 mph - N/A   Clear
2:30 PM 78.8 °F 51.8 °F 39% 30.04 in - WSW 6.9 mph - N/A   Clear
3:00 PM 80.6 °F 51.8 °F 37% 30.04 in - SW 5.8 mph - N/A   Clear
3:30 PM 80.6 °F 50.0 °F 34% 30.04 in - SW 5.8 mph - N/A   Clear
4:00 PM 80.6 °F 50.0 °F 34% 30.01 in - West 10.4 mph - N/A   Clear
4:30 PM 80.6 °F 48.2 °F 32% 30.01 in - SSE 3.5 mph - N/A   Clear
5:00 PM 80.6 °F 50.0 °F 34% 30.01 in - SW 4.6 mph - N/A   Clear
5:30 PM 80.6 °F 50.0 °F 34% 30.01 in - SW 5.8 mph - N/A   Clear
6:00 PM 82.4 °F 48.2 °F 30% 30.01 in - SW 6.9 mph - N/A   Clear
6:30 PM 80.6 °F 48.2 °F 32% 30.01 in - Variable 2.3 mph - N/A   Clear
7:00 PM 78.8 °F 50.0 °F 36% 30.01 in - South 3.5 mph - N/A   Clear
7:30 PM 77.0 °F 50.0 °F 39% 30.01 in - SSE 4.6 mph - N/A   Clear
8:00 PM 74 °F 49 °F 31% 29.97 in 25 mi SE 6.7 mph - -   Scattered Clouds
8:00 PM 73.4 °F 50.0 °F 44% 30.01 in - SE 4.6 mph - N/A   Clear
8:30 PM 73.4 °F 50.0 °F 44% 30.01 in - SE 5.8 mph - N/A   Clear
9:00 PM 71.6 °F 50.0 °F 46% 30.01 in - SE 6.9 mph - N/A   Clear
9:30 PM 71.6 °F 50.0 °F 46% 30.01 in - SSE 6.9 mph - N/A   Clear
10:00 PM 68.0 °F 50.0 °F 52% 30.01 in - SSE 4.6 mph - N/A   Clear
10:30 PM 68.0 °F 50.0 °F 52% 30.01 in - South 5.8 mph - N/A   Clear
11:00 PM 68.0 °F 51.8 °F 56% 30.01 in - South 5.8 mph - N/A   Clear
11:30 PM 68.0 °F 51.8 °F 56% 30.01 in - South 5.8 mph - N/A   Clear